Location: Chevoux
(46.3801°N, 4.9476°E)
Time: 17:22:45
(UTC+00:00)

EO-88 - Visible Passes

Search period start: 22 June 2021 00:00
Search period end: 02 July 2021 00:00
Orbit: 476 x 486 km, 97.3° (Epoch: 21 June)

Date Brightness Start Highest point End Pass type
(mag) Time Alt. Az. Time Alt. Az. Time Alt. Az.
22 Jun ? 20:54:46 15° SSE 20:57:34 63° ENE 21:01:06 10° N visible
23 Jun ? 20:29:05 10° SE 20:32:14 30° ENE 20:35:24 10° N visible
23 Jun ? 22:03:22 11° SW 22:05:41 19° W 22:08:16 10° NW visible
24 Jun ? 21:37:41 16° SSW 21:40:06 36° W 21:43:26 10° NNW visible
25 Jun ? 21:11:59 17° S 21:14:36 79° WSW 21:18:10 10° NNW visible
26 Jun ? 20:46:18 14° SE 20:49:12 49° ENE 20:52:38 10° N visible
26 Jun ? 22:21:25 10° WSW 22:22:52 12° W 22:24:20 10° WNW visible
27 Jun ? 20:20:57 10° SE 20:23:53 25° ENE 20:26:50 10° NNE visible
27 Jun ? 21:54:53 13° SW 21:57:13 23° W 22:00:07 10° NW visible
28 Jun ? 21:29:11 17° SSW 21:31:39 46° W 21:35:06 10° NNW visible
29 Jun ? 21:03:29 17° SSE 21:06:10 81° ENE 21:09:44 10° N visible
30 Jun ? 20:37:47 12° SE 20:40:47 38° ENE 20:44:06 10° N visible
30 Jun ? 22:12:13 10° SW 22:14:20 15° W 22:16:28 10° NW visible
01 Jul ? 20:12:48 10° ESE 20:15:28 20° ENE 20:18:09 10° NNE visible
01 Jul ? 21:46:22 15° SSW 21:48:42 29° W 21:51:50 10° NW visible
